Flag for Mongolia Weather past 2 weeks in Ulaanbaatar, Mongolia

Now
12 °F

Sunny.


Feels Like: 3 °F
Forecast: -8 / 9 °F
Wind: 6 mph from Northwest

Location: Ulan-Bator

Current Time: Mar 1, 2015 at 7:36:20 PM

Latest Report: Mar 1, 2015 at 7:00 PM


Visibility: 10 mi

Pressure: 29.83 "Hg

Humidity: 62%

Dew point: 1 °F

Location of UlaanbaatarLocation

Historic Weather in Ulaanbaatar — Graph

°F

Ulaanbaatar temperature yesterday

Maximum temperature yesterday: 21 °F (at 5:00 PM)
Minimum temperature yesterday: -8 °F (at 7:30 AM)
Average temperature yesterday: 8 °F

Past Weeks' High & Low Weather Summary

 TemperatureHumidityPressure
High36 °F (Feb 19, 2:00 PM)86% (Feb 14, 10:30 PM)30.24 "Hg (Feb 14, 10:30 PM)
Low-24 °F (Feb 23, 7:30 AM)21% (Feb 26, 4:30 PM)29.65 "Hg (Feb 20, 7:30 AM)
Average5 °F60%29.97 "Hg
* Reported Feb 14 6:00 PM — Mar 1 6:30 PM, Ulaanbaatar, Weather by CustomWeather, © 2015

Note: Actual official high and low records may vary slightly from our data, if they occured in-between our weather recording intervals... More about our weather records

Advertising

Ulaanbaatar weather history for previous 24 hours

 ConditionsComfort  
Time TempWeatherWind HumidityBarometerVisibility
6:30 PM
Sun, Mar 1
19 °FSunny.6 mph49%29.83 "Hg10 mi
6:00 PM21 °FScattered clouds.10 mph42%29.80 "HgN/A
5:30 PM23 °FScattered clouds.10 mph42%29.80 "HgN/A
5:00 PM25 °FScattered clouds.10 mph42%29.80 "HgN/A
4:30 PM25 °FPartly sunny.6 mph42%29.80 "HgN/A
4:00 PM23 °FScattered clouds.1 mph42%29.80 "HgN/A
3:30 PM23 °FScattered clouds.1 mph42%29.80 "HgN/A
3:00 PM21 °FPartly sunny.1 mph45%29.80 "HgN/A
2:30 PM19 °FPartly sunny.1 mph45%29.80 "Hg5 mi
2:00 PM19 °FPartly sunny.1 mph45%29.80 "Hg5 mi
1:30 PM19 °FPartly sunny.1 mph45%29.83 "Hg5 mi
1:00 PM18 °FPartly sunny.1 mph45%29.83 "Hg4 mi
12:30 PM16 °FScattered clouds.No wind48%29.83 "Hg3 mi
12:00 PM14 °FScattered clouds.No wind48%29.83 "Hg2 mi
11:30 AM10 °FPartly sunny.1 mph56%29.83 "Hg2 mi
11:00 AM9 °FPartly sunny.1 mph61%29.83 "Hg2 mi
10:30 AM5 °FPartly sunny.No wind66%29.83 "Hg2 mi
10:00 AM3 °FPartly sunny.1 mph66%29.86 "Hg2 mi
9:30 AM0 °FPartly sunny.No wind71%29.86 "Hg3 mi
9:00 AM-2 °FPartly sunny.No wind77%29.86 "Hg3 mi
8:30 AM-6 °FPassing clouds.1 mph77%29.86 "Hg3 mi
8:00 AM-9 °FPassing clouds.No wind77%29.83 "Hg3 mi
7:30 AM-8 °FClear.No wind77%29.83 "Hg5 mi
7:00 AM-9 °FClear.No wind77%29.83 "Hg5 mi
6:30 AM-9 °FClear.No wind70%29.83 "Hg5 mi
6:00 AM-6 °FClear.1 mph70%29.86 "Hg10 mi
5:30 AM-8 °FClear.1 mph77%29.86 "Hg10 mi
5:00 AM-9 °FClear.1 mph77%29.83 "Hg10 mi
4:00 AM-8 °FClear.1 mph77%29.86 "Hg10 mi
3:00 AM-6 °FClear.1 mph77%29.89 "Hg10 mi
2:00 AM-4 °FClear.No wind71%29.89 "Hg10 mi
1:00 AM-6 °FClear.1 mph77%29.89 "Hg10 mi
12:00 AM0 °FClear.No wind71%29.89 "Hg10 mi
11:30 PM
Sat, Feb 28
-4 °FClear.3 mph77%29.92 "Hg10 mi
11:00 PM-4 °FClear.1 mph71%29.92 "Hg10 mi
10:30 PM0 °FClear.No wind65%29.92 "Hg10 mi
10:00 PM0 °FClear.No wind71%29.95 "Hg10 mi
9:30 PM0 °FClear.3 mph71%29.95 "Hg10 mi
9:00 PM1 °FClear.1 mph65%29.95 "Hg10 mi
8:30 PM1 °FClear.3 mph65%29.95 "Hg10 mi
8:00 PM9 °FClear.1 mph56%29.95 "Hg10 mi
7:30 PM12 °FSunny.6 mph52%29.95 "Hg10 mi
7:00 PM12 °FPartly sunny.3 mph48%29.92 "HgN/A
Weather by CustomWeather, © 2015

See weather overviewHow to use our weather pages